| time (UTC) | temp F | wind direction | speed MPH | gust MPH | rain 1hr in | rain 24hr in | rain mn in | humidity % | barometer mb |
| 20260505093038 | 55 | 32 | 1.0 | 2.0 | 0.00 | 0.00 | 0.00 | 73 | 1007.0 |
| 20260505091537 | 54 | 57 | 1.0 | 5.0 | 0.00 | 0.00 | 0.00 | 75 | 1006.9 |
| 20260505090038 | 55 | 101 | 0.0 | 2.0 | 0.00 | 0.00 | 0.00 | 73 | 1006.8 |
| 20260505084531 | 55 | 101 | 1.0 | 3.0 | 0.00 | 0.00 | 0.00 | 72 | 1006.8 |
| 20260505083032 | 56 | 101 | 0.0 | 3.0 | 0.00 | 0.00 | 0.00 | 70 | 1006.8 |
| 20260505081531 | 57 | 97 | 2.0 | 5.0 | 0.00 | 0.00 | 0.00 | 68 | 1006.6 |
| 20260505080032 | 57 | 97 | 0.0 | 3.0 | 0.00 | 0.00 | 0.00 | 66 | 1006.5 |
| 20260505074519 | 58 | 97 | 0.0 | 3.0 | 0.00 | 0.00 | 0.00 | 66 | 1006.4 |
| 20260505073020 | 59 | 59 | 3.0 | 4.0 | 0.00 | 0.00 | 0.00 | 64 | 1006.3 |
| 20260505071514 | 58 | 71 | 3.0 | 4.0 | 0.00 | 0.00 | 0.00 | 65 | 1006.3 |
| 20260505070012 | 59 | 26 | 2.0 | 4.0 | 0.00 | 0.00 | 0.00 | 65 | 1006.1 |
| 20260505064511 | 59 | 161 | 3.0 | 5.0 | 0.00 | 0.00 | 0.00 | 66 | 1005.9 |
| 20260505063011 | 59 | 67 | 3.0 | 8.0 | 0.00 | 0.00 | 0.00 | 64 | 1005.7 |
| 20260505061520 | 60 | 160 | 1.0 | 4.0 | 0.00 | 0.00 | 0.00 | 63 | 1005.6 |
| 20260505060013 | 61 | 102 | 1.0 | 2.0 | 0.00 | 0.00 | 0.00 | 62 | 1005.4 |
| 20260505054510 | 61 | 55 | 2.0 | 3.0 | 0.00 | 0.00 | 0.00 | 61 | 1005.3 |
| 20260505053010 | 62 | 75 | 2.0 | 5.0 | 0.00 | 0.00 | 0.00 | 59 | 1005.2 |
| 20260505051509 | 63 | 69 | 2.0 | 3.0 | 0.00 | 0.00 | 0.00 | 59 | 1005.1 |
| 20260505041506 | 66 | 65 | 1.0 | 5.0 | 0.00 | 0.00 | 0.00 | 54 | 1004.6 |
| 20260505040011 | 67 | 55 | 2.0 | 4.0 | 0.00 | 0.00 | 0.00 | 51 | 1004.4 |
| 20260505034505 | 69 | 60 | 2.0 | 4.0 | 0.00 | 0.00 | 0.00 | 49 | 1004.1 |
| 20260505033005 | 69 | 20 | 2.0 | 4.0 | 0.00 | 0.00 | 0.00 | 47 | 1003.9 |
| 20260505031504 | 70 | 73 | 1.0 | 3.0 | 0.00 | 0.00 | 0.00 | 46 | 1003.6 |
| 20260505030004 | 71 | 59 | 2.0 | 4.0 | 0.00 | 0.00 | 0.00 | 46 | 1003.3 |
| 20260505024510 | 74 | 74 | 2.0 | 4.0 | 0.00 | 0.00 | 0.00 | 44 | 1003.0 |
| 20260505023003 | 79 | 38 | 0.0 | 2.0 | 0.00 | 0.00 | 0.00 | 37 | 1002.9 |
| 20260505021539 | 82 | 318 | 1.0 | 2.0 | 0.00 | 0.00 | 0.00 | 32 | 1002.8 |
| 20260505020100 | 83 | 318 | 1.0 | 4.0 | 0.00 | 0.00 | 0.00 | 33 | 1002.8 |
| 20260505014622 | 83 | 17 | 1.0 | 4.0 | 0.00 | 0.00 | 0.00 | 29 | 1002.8 |
| 20260505013018 | 84 | 300 | 1.0 | 3.0 | 0.00 | 0.00 | 0.00 | 29 | 1002.9 |
| 20260505011607 | 85 | 317 | 2.0 | 6.0 | 0.00 | 0.00 | 0.00 | 30 | 1003.0 |
| 20260505010131 | 85 | 329 | 2.0 | 10.0 | 0.00 | 0.00 | 0.00 | 24 | 1003.2 |
| 20260505004517 | 85 | 39 | 5.0 | 11.0 | 0.00 | 0.00 | 0.00 | 25 | 1003.4 |
| 20260505003056 | 85 | 59 | 2.0 | 9.0 | 0.00 | 0.00 | 0.00 | 26 | 1003.5 |
| 20260505001625 | 85 | 86 | 2.0 | 9.0 | 0.00 | 0.00 | 0.00 | 27 | 1003.6 |
| 20260505000005 | 86 | 340 | 5.0 | 9.0 | 0.00 | 0.00 | 0.00 | 26 | 1003.7 |
| 20260504234549 | 86 | 304 | 3.0 | 7.0 | 0.00 | 0.00 | 0.00 | 27 | 1003.8 |
| 20260504233117 | 85 | 275 | 1.0 | 5.0 | 0.00 | 0.00 | 0.00 | 27 | 1003.8 |
| 20260504231632 | 85 | 348 | 4.0 | 8.0 | 0.00 | 0.00 | 0.00 | 27 | 1003.9 |
| 20260504230039 | 84 | 254 | 5.0 | 10.0 | 0.00 | 0.00 | 0.00 | 29 | 1004.0 |
| 20260504224550 | 84 | 286 | 4.0 | 9.0 | 0.00 | 0.00 | 0.00 | 28 | 1004.2 |
| 20260504223049 | 85 | 236 | 4.0 | 10.0 | 0.00 | 0.00 | 0.00 | 27 | 1004.4 |
| 20260504221619 | 84 | 275 | 5.0 | 8.0 | 0.00 | 0.00 | 0.00 | 28 | 1004.4 |
| 20260504220119 | 84 | 279 | 2.0 | 11.0 | 0.00 | 0.00 | 0.00 | 26 | 1004.5 |
| 20260504214537 | 84 | 328 | 3.0 | 8.0 | 0.00 | 0.00 | 0.00 | 25 | 1004.7 |
| 20260504213055 | 84 | 328 | 3.0 | 11.0 | 0.00 | 0.00 | 0.00 | 25 | 1004.8 |
| 20260504211559 | 85 | 274 | 3.0 | 7.0 | 0.00 | 0.00 | 0.00 | 27 | 1004.9 |
| 20260504210009 | 85 | 213 | 4.0 | 7.0 | 0.00 | 0.00 | 0.00 | 28 | 1005.1 |
| 20260504204531 | 84 | 206 | 4.0 | 10.0 | 0.00 | 0.00 | 0.00 | 29 | 1005.2 |
| 20260504203058 | 83 | 175 | 7.0 | 11.0 | 0.00 | 0.00 | 0.00 | 29 | 1005.3 |
| 20260504201637 | 83 | 211 | 8.0 | 12.0 | 0.00 | 0.00 | 0.00 | 32 | 1005.3 |
| 20260504200025 | 83 | 229 | 6.0 | 10.0 | 0.00 | 0.00 | 0.00 | 30 | 1005.5 |
| 20260504194615 | 82 | 168 | 7.0 | 11.0 | 0.00 | 0.00 | 0.00 | 32 | 1005.6 |
| 20260504193014 | 81 | 167 | 5.0 | 9.0 | 0.00 | 0.00 | 0.00 | 34 | 1005.7 |
| 20260504191517 | 80 | 173 | 5.0 | 12.0 | 0.00 | 0.00 | 0.00 | 36 | 1006.0 |
| 20260504190131 | 79 | 225 | 5.0 | 8.0 | 0.00 | 0.00 | 0.00 | 36 | 1006.0 |
| 20260504184513 | 77 | 203 | 3.0 | 6.0 | 0.00 | 0.00 | 0.00 | 42 | 1006.2 |
| 20260504183043 | 74 | 231 | 2.0 | 6.0 | 0.00 | 0.00 | 0.00 | 47 | 1006.4 |
| 20260504181604 | 72 | 268 | 3.0 | 5.0 | 0.00 | 0.00 | 0.00 | 51 | 1006.4 |
| 20260504180014 | 71 | 305 | 2.0 | 5.0 | 0.00 | 0.00 | 0.00 | 50 | 1006.5 |
| 20260504174535 | 70 | 286 | 1.0 | 5.0 | 0.00 | 0.00 | 0.00 | 51 | 1006.6 |
| 20260504173106 | 68 | 287 | 2.0 | 4.0 | 0.00 | 0.00 | 0.00 | 53 | 1006.6 |
| 20260504171606 | 68 | 270 | 2.0 | 4.0 | 0.00 | 0.00 | 0.00 | 53 | 1006.8 |
| 20260504160111 | 60 | 240 | 0.0 | 2.0 | 0.00 | 0.00 | 0.00 | 69 | 1007.2 |